Tracking 31027 objects as of 19-Jul-2025
HD Live streaming from Space Station
objects crossing your sky now

IRIDIUM 33 DEB

Track IRIDIUM 33 DEB now!
10-day predictions


NORAD ID: 33960
Int'l Code: 1997-051BV
Perigee: 638.9 km
Apogee: 642.7 km
Inclination: 86.3 °
Period: 97.4 minutes
Semi major axis: 7011 km
RCS: 0.042 m2 (small)
Launch date: September 14, 1997
Source: United States (US)
Launch site: TYURATAM MISSILE AND SPACE COMPLEX (TTMTR)

Note: This is SATELLITE DEBRIS
Your satellite tracking list
STARLINK-31009
Track 1 satellite(s)




NASA's NSSDC Master Catalog

Two Line Element Set (TLE):
1 33960U 97051BV  25199.46607128  .00007822  00000-0  10647-2 0  9992
2 33960  86.2614 358.4394 0002705 169.6026 244.4195 14.78633995866879
Source of the keplerian elements: AFSPC